Regional Weather Roundup
Issued by NWS

Home | Current Version | Previous Version | Text Only | Print | Product List | Glossary On
Versions: 1 2 3 4 5 6 7 8 9 10 11 12 13 14 15 16 17 18 19 20 21 22 23 24 25 26 27 28 29 30 31 32 33 34 35 36 37 38 39 40 41 42 43 44 45 46 47 48 49 50
000
ASUS43 KFSD 282002
RWRSD

WEATHER ROUNDUP FOR SOUTH DAKOTA
NATIONAL WEATHER SERVICE SIOUX FALLS SD
300 PM CDT SAT MAR 28 2015

NOTE: "FAIR" INDICATES FEW OR NO CLOUDS BELOW 12,000 FEET WITH NO
SIGNIFICANT WEATHER AND/OR OBSTRUCTIONS TO VISIBILITY.


SDZ001>005-009-010-012>017-282100-
NORTHWEST AND NORTH CENTRAL SOUTH DAKOTA

CITY           SKY/WX    TMP DP  RH WIND       PRES   REMARKS
BUFFALO          N/A     76  32  20 SW17G25   29.59F
FAITH            N/A     74  33  22 S18       29.70F
MOBRIDGE       SUNNY     62  34  35 S23       29.75F
$$

SDZ012>016-024>037-041>051-057-063-072>074-282100-
SOUTHWEST AND SOUTH CENTRAL SOUTH DAKOTA

CITY           SKY/WX    TMP DP  RH WIND       PRES   REMARKS
RAPID CTY ARPT SUNNY     80  33  18 SE18G29   29.68F
PIERRE         SUNNY     68  36  30 S23G29    29.79F
CUSTER         SUNNY     69  25  19 SW14G25   29.84F
ELLSWORTH AFB  SUNNY     79  34  19 S15G28    29.68F
PHILIP         SUNNY     78  30  17 S16       29.73F
PINE RIDGE     SUNNY     78  31  17 SW15      29.78F
SPEARFISH      FAIR      75  28  17 SW13G26   29.73F
WINNER         FAIR      70  34  26 S20G25    29.85F
$$

SDZ004>011-016>023-039-040-282100-
NORTHEAST SOUTH DAKOTA

CITY           SKY/WX    TMP DP  RH WIND       PRES   REMARKS
ABERDEEN       SUNNY     54  31  41 S24G30    29.90F
WATERTOWN      SUNNY     50  27  40 S21G31    29.95F
SISSETON         N/A     49  33  54 S23G30    29.94F
$$

SDZ017-020-022-023-036>040-048>070-282100-
SOUTHEAST SOUTH DAKOTA

CITY           SKY/WX    TMP DP  RH WIND       PRES   REMARKS
SIOUX FALLS    SUNNY     50  26  39 S20G28    30.02F
HURON          SUNNY     53  29  39 S15G29    29.93F
MITCHELL       SUNNY     54  30  40 S22G33    29.97F
YANKTON        SUNNY     54  28  37 SE17G23   30.02F
$$

ABBREVIATIONS USED IN REMARKS
   TC - TEMPERATURE IN CELSIUS
  WCI - WIND CHILL INDEX
   HX - HEAT INDEX
  VSB - VISIBILITY



USA.gov is the U.S. government's official web portal to all federal, state and local government web resources and services.